,

(GMT )
Kejimkujik

Weather History for CWKG - February, 2013

Change the Weather History Date:

Friday, February 1, 2013

  Actual Average Record
Temperature  
Mean Temperature 26 °F -  
Max Temperature 34 °F - - ()
Min Temperature 19 °F - - ()
Degree Days  
Heating Degree Days 38    
Moisture  
Dew Point 17 °F    
Average Humidity 63    
Maximum Humidity 82    
Minimum Humidity 40    
Precipitation  
Precipitation 0.00 in - - ()
Sea Level Pressure  
Sea Level Pressure 29.55 in    
Wind  
Wind Speed 9 mph ()    
Max Wind Speed 13 mph    
Max Gust Speed 29 mph    
T = Trace of Precipitation, MM = Missing Value Source: Averaged Metar Reports

Daily Weather History Graph

Daily Weather History Graph

Search for Another Location

Airport or City:

Trip Planner

Search our weather history database for the weather conditions in past years. The results will help you decide how hot, cold, wet, or windy it might be!

Date:

Astronomy

Feb. 01, 2013 Rise Set
Actual Time 7:38 AM AST 5:30 PM AST
Civil Twilight 7:08 AM AST 6:01 PM AST
Nautical Twilight 6:33 AM AST 6:36 PM AST
Astronomical Twilight 5:59 AM AST 7:10 PM AST
Moon 11:50 PM AST (2/1) 9:54 AM AST (2/1)
Length of Visible Light 10h 53m
Length of Day
9h 51m
Waning Gibbous, 71% of the Moon is Illuminated
Feb 1
Waning Gibbous
Feb 3
Last Quarter
Feb 10
New
Feb 17
First Quarter
Feb 25
Full

Hourly Weather History & Observations

Time (AST) Temp. Windchill Dew Point Humidity Pressure Visibility Wind Dir Wind Speed Gust Speed Precip Events Conditions
12:00 AM 34.5 °F 26.2 °F 24.4 °F 67% 29.29 in - West 11.5 mph 19.6 mph N/A   Unknown
1:00 AM 34.0 °F 26.0 °F 22.6 °F 63% 29.30 in - West 10.4 mph 19.6 mph N/A   Unknown
2:00 AM 33 °F - 22 °F 52% 29.33 in - WNW 11.5 mph - -  
2:00 AM 32.9 °F 24.1 °F 21.9 °F 64% 29.33 in - WNW 11.5 mph 21.9 mph N/A   Unknown
3:00 AM 31.6 °F 23.1 °F 22.6 °F 69% 29.35 in - West 10.4 mph 21.9 mph N/A   Unknown
4:00 AM 32.0 °F 22.5 °F 20.1 °F 62% 29.38 in - WNW 12.7 mph 28.8 mph N/A   Unknown
5:00 AM 31.6 °F 23.1 °F 19.9 °F 62% 29.39 in - West 10.4 mph 21.9 mph N/A   Unknown
6:00 AM 29.3 °F 20.2 °F 23.5 °F 79% 29.43 in - West 10.4 mph 24.2 mph N/A   Unknown
7:00 AM 28.6 °F 20.7 °F 23.7 °F 82% 29.46 in - WNW 8.1 mph - N/A   Unknown
8:00 AM 28 °F - 22 °F 69% 29.49 in - WNW 8.1 mph - -  
8:00 AM 28.2 °F 20.2 °F 21.9 °F 77% 29.49 in - WNW 8.1 mph - N/A   Unknown
9:00 AM 29.3 °F 20.8 °F 19.9 °F 68% 29.51 in - WNW 9.2 mph 20.7 mph N/A   Unknown
10:00 AM 30.2 °F 21.3 °F 19.2 °F 64% 29.52 in - West 10.4 mph 23.0 mph N/A   Unknown
11:00 AM 30.9 °F 21.7 °F 15.1 °F 52% 29.55 in - WNW 11.5 mph 27.6 mph N/A   Unknown
12:00 PM 28.9 °F 19.8 °F 19.9 °F 69% 29.57 in - NW 10.4 mph 18.4 mph N/A   Unknown
1:00 PM 29.1 °F 20.6 °F 18.5 °F 65% 29.58 in - WNW 9.2 mph 25.3 mph N/A   Unknown
2:00 PM 30 °F - 15 °F 40% 29.60 in - West 11.5 mph - -  
2:00 PM 30.0 °F 20.5 °F 15.1 °F 54% 29.60 in - West 11.5 mph 21.9 mph N/A   Unknown
3:00 PM 31.5 °F 22.9 °F 13.3 °F 47% 29.61 in - NW 10.4 mph 21.9 mph N/A   Unknown
4:00 PM 28.2 °F 19.5 °F 14.7 °F 57% 29.66 in - WNW 9.2 mph 20.7 mph N/A   Unknown
5:00 PM 26.8 °F 17.7 °F 12.2 °F 54% 29.68 in - WNW 9.2 mph - N/A   Unknown
6:00 PM 25.3 °F 18.5 °F 12.0 °F 57% 29.69 in - NW 5.8 mph - N/A   Unknown
7:00 PM 24.3 °F 19.9 °F 13.3 °F 63% 29.72 in - NW 3.5 mph - N/A   Unknown
8:00 PM 23 °F - 12 °F 51% 29.76 in - NNW 3.5 mph - -  
8:00 PM 23.0 °F 18.4 °F 12.4 °F 64% 29.76 in - NNW 3.5 mph - N/A   Unknown
9:00 PM 21.2 °F 16.4 °F 11.7 °F 67% 29.79 in - NW 3.5 mph - N/A   Unknown
10:00 PM 19.9 °F 14.9 °F 11.3 °F 69% 29.82 in - NW 3.5 mph - N/A   Unknown
11:00 PM 19.0 °F 11.1 °F 9.5 °F 66% 29.81 in - North 5.8 mph - N/A   Unknown